This demonstration page uses our WeatherBlox Daily Observations layout. Learn more.

Left ArrowRight Arrow

Hourly Observations for April 8, 2022

Temp ( °F °C ) Dew Point ( °F °C ) Humidity (%) Winds ( mph kmh ) Pressure ( in mb ) Visibility ( mi km ) Precip ( " mm )
12:56 am 00:56 Cloudy with Light Rain/Snow 35 1.8 29 -1.8 77 77 NNW 12 19 30.01 1016 10 16 0.01 0.25
1:19 am 01:19 Windy with Snow Showers Likely 36 2 28 -2 75 75 N 21 33 30.03 1017 9 14 0.00 0.00
1:56 am 01:56 Cloudy 34 1.3 26 -3.2 72 72 NNW 13 20 30.02 1017 10 16 0.00 0.00
2:56 am 02:56 Mostly Cloudy with Light Snow Showers 34 1.1 27 -2.8 76 76 NNW 13 20 30.02 1017 10 16 0.00 0.00
3:56 am 03:56 Cloudy 35 1.5 26 -3.4 70 70 NNW 18 30 30.03 1017 10 16 0.00 0.00
4:56 am 04:56 Cloudy 35 1.6 26 -3.1 71 71 NNW 14 22 30.03 1017 10 16 0.00 0.00
5:56 am 05:56 Mostly Cloudy 35 1.8 26 -3.3 69 69 NNW 15 24 30.04 1017 10 16 0.00 0.00
6:56 am 06:56 Mostly Cloudy 33 0.7 26 -3.2 75 75 NW 16 26 30.06 1018 10 16 0.00 0.00
7:56 am 07:56 Partly Cloudy 32 0.1 26 -3.6 76 76 NNW 14 22 30.08 1019 10 16 0.00 0.00
8:56 am 08:56 undefined 34 1.3 26 -3.4 71 71 NW 18 30 30.10 1019 10 16 0.00 0.00
9:56 am 09:56 Partly Cloudy 37 2.6 26 -3.3 65 65 NW 21 33 30.11 1020 10 16 0.00 0.00
10:56 am 10:56 Partly Cloudy 39 4 25 -3.8 57 57 NNW 21 33 30.11 1020 10 16 0.00 0.00
11:56 am 11:56 Mostly Cloudy 42 5.5 26 -3.6 52 52 NW 18 30 30.11 1020 10 16 0.00 0.00
12:56 pm 12:56 Mostly Cloudy 44 6.4 26 -3.5 50 50 NW 22 35 30.09 1019 10 16 0.00 0.00
1:56 pm 13:56 Mostly Cloudy 46 8 25 -4.1 42 42 NNW 15 24 30.08 1019 10 16 0.00 0.00
2:51 pm 14:51 Mostly Sunny 50 10 23 -5 35 35 NW 23 37 30.06 1018 10 16 0.00 0.00
2:56 pm 14:56 Mostly Sunny 50 10 23 -5.2 34 34 NW 22 35 30.06 1018 10 16 0.00 0.00
3:56 pm 15:56 Mostly Sunny 52 11 19 -7.3 27 27 NW 20 31 30.04 1017 10 16 0.00 0.00
4:56 pm 16:56 Sunny 53 11.4 16 -9 23 23 NNW 17 28 30.03 1017 10 16 0.00 0.00
5:56 pm 17:56 Sunny 53 11.6 14 -10 21 21 NNW 16 26 30.02 1017 10 16 0.00 0.00
6:56 pm 18:56 Sunny 52 11.1 10 -12.4 18 18 NNW 18 30 30.02 1017 10 16 0.00 0.00
7:56 pm 19:56 Sunny 49 9.6 10 -12.3 20 20 NNW 12 19 30.01 1016 10 16 0.00 0.00
8:56 pm 20:56 Clear 46 8 11 -11.4 24 24 NW 9 15 30.02 1017 10 16 0.00 0.00
9:56 pm 21:56 Clear 43 6.3 12 -10.9 28 28 NW 8 13 30.04 1017 10 16 0.00 0.00
10:56 pm 22:56 Mostly Clear 38 3.4 15 -9.6 38 38 WNW 7 11 30.04 1017 10 16 0.00 0.00
11:56 pm 23:56 Mostly Clear 38 3.3 15 -9.7 38 38 NNW 5 7 30.04 1017 10 16 0.00 0.00

Powered by AerisWeather